Weather History for YSSY - October, 2013

Change the Weather History Date:

Wednesday, October 30, 2013

  Actual Average Record
Temperature  
Mean Temperature 62 °F -  
Max Temperature 68 °F 75 °F 88 °F (2014)
Min Temperature 55 °F 59 °F 53 °F (2006)
Degree Days  
Heating Degree Days 4    
Growing Degree Days 12 (Base 50)    
Moisture  
Dew Point 49 °F    
Average Humidity 58    
Maximum Humidity 82    
Minimum Humidity 36    
Precipitation  
Precipitation 0.01 in 0.13 in - ()
Sea Level Pressure  
Sea Level Pressure 30.07 in    
Wind  
Wind Speed 16 mph ()    
Max Wind Speed 25 mph    
Max Gust Speed 30 mph    
Visibility 7.7 miles    
Events Rain    
Averages and records for this station are not official NWS values.
T = Trace of Precipitation, MM = Missing Value Source: Averaged Metar Reports

Daily Weather History Graph

Daily Weather History Graph

Search for Another Location

Airport or City:

Trip Planner

Search our weather history database for the weather conditions in past years. The results will help you decide how hot, cold, wet, or windy it might be!

Date:

Astronomy

Oct. 30, 2013 Rise Set
Actual Time 5:57 AM AEDT 7:21 PM AEDT
Civil Twilight 5:30 AM AEDT 7:47 PM AEDT
Nautical Twilight 4:59 AM AEDT 8:19 PM AEDT
Astronomical Twilight 4:26 AM AEDT 8:52 PM AEDT
Moon 3:02 AM AEDT (10/30) 3:01 PM AEDT (10/30)
Length of Visible Light 14h 17m
Length of Day
13h 24m
Waning Crescent, 22% of the Moon is Illuminated
Oct 30
Waning Crescent
Nov 3
New
Nov 10
First Quarter
Nov 18
Full
Nov 26
Last Quarter

Hourly Weather History & Observations

Time (AEDT) Temp. Dew Point Humidity Pressure Visibility Wind Dir Wind Speed Gust Speed Precip Events Conditions
12:00 AM 60 °F 53 °F 71% 30.02 in 12 mi SSE 25.3 mph - -   Mostly Cloudy
12:00 AM 60.8 °F 53.6 °F 77% 30.01 in 6.2 mi SSE 25.3 mph - N/A   Mostly Cloudy
12:30 AM 59.0 °F 53.6 °F 82% 30.01 in 6.2 mi SSE 19.6 mph - N/A Rain Light Rain Showers
1:00 AM 62 °F 52 °F 62% 30.01 in - South 24.2 mph - -  
1:00 AM 62.6 °F 51.8 °F 68% 30.01 in 6.2 mi South 24.2 mph - N/A   Mostly Cloudy
1:30 AM 62.6 °F 51.8 °F 68% 30.01 in 6.2 mi South 24.2 mph - N/A   Mostly Cloudy
2:00 AM 61 °F 55 °F 76% 30.00 in - South 20.7 mph - -  
2:00 AM 60.8 °F 55.4 °F 82% 29.98 in 6.2 mi South 20.7 mph - N/A   Mostly Cloudy
2:30 AM 60.8 °F 53.6 °F 77% 29.98 in 6.2 mi SSE 19.6 mph - N/A   Scattered Clouds
3:00 AM 62 °F 51 °F 57% 30.00 in 16 mi South 21.9 mph - -   Mostly Cloudy
3:00 AM 62.6 °F 50.0 °F 63% 29.98 in 6.2 mi South 21.9 mph - N/A   Scattered Clouds
3:30 AM 62.6 °F 48.2 °F 59% 29.98 in 6.2 mi South 23.0 mph - N/A   Scattered Clouds
4:00 AM 61 °F 48 °F 52% 30.01 in - SSW 18.4 mph - -  
4:00 AM 60.8 °F 48.2 °F 63% 30.01 in 6.2 mi SSW 18.4 mph - N/A   Scattered Clouds
4:30 AM 60.8 °F 46.4 °F 59% 30.01 in 6.2 mi SSW 19.6 mph - N/A   Scattered Clouds
5:00 AM 59 °F 45 °F 50% 30.04 in - SW 16.1 mph - -  
5:00 AM 59.0 °F 44.6 °F 59% 30.04 in 6.2 mi SW 16.1 mph - N/A   Mostly Cloudy
5:30 AM 57.2 °F 44.6 °F 63% 30.04 in 6.2 mi SW 16.1 mph - N/A   Partly Cloudy
6:00 AM 57 °F 44 °F 53% 30.06 in 16 mi WSW 10.4 mph - -   Scattered Clouds
6:00 AM 57.2 °F 44.6 °F 63% 30.04 in 6.2 mi WSW 10.4 mph - N/A   Partly Cloudy
6:30 AM 55.4 °F 44.6 °F 67% 30.06 in 6.2 mi WSW 13.8 mph - N/A   Partly Cloudy
7:00 AM 57 °F 44 °F 51% 30.08 in - WSW 15.0 mph - -  
7:00 AM 57.2 °F 44.6 °F 63% 30.06 in 6.2 mi WSW 15.0 mph - N/A   Partly Cloudy
7:30 AM 57.2 °F 42.8 °F 59% 30.06 in 6.2 mi WSW 13.8 mph - N/A   Scattered Clouds
8:00 AM 60 °F 45 °F 47% 30.10 in - SW 13.8 mph - -  
8:00 AM 60.8 °F 44.6 °F 55% 30.09 in 6.2 mi SW 13.8 mph - N/A   Partly Cloudy
8:30 AM 62.6 °F 48.2 °F 59% 30.09 in 6.2 mi SSW 17.3 mph - N/A   Scattered Clouds
9:00 AM 62 °F 49 °F 52% 30.12 in 16 mi SSW 16.1 mph - -   Mostly Cloudy
9:00 AM 62.6 °F 48.2 °F 59% 30.09 in 6.2 mi SSW 16.1 mph - N/A   Mostly Cloudy
9:30 AM 62.6 °F 48.2 °F 59% 30.09 in 6.2 mi South 18.4 mph - N/A   Mostly Cloudy
10:00 AM 64 °F 49 °F 49% 30.12 in - South 18.4 mph - -  
10:00 AM 64.4 °F 50.0 °F 59% 30.12 in 6.2 mi South 18.4 mph - N/A   Scattered Clouds
10:30 AM 64.4 °F 50.0 °F 59% 30.09 in 6.2 mi South 16.1 mph - N/A   Partly Cloudy
11:00 AM 65 °F 49 °F 46% 30.12 in - South 18.4 mph - -  
11:00 AM 66.2 °F 50.0 °F 56% 30.09 in 6.2 mi South 18.4 mph - N/A   Scattered Clouds
11:30 AM 64.4 °F 50.0 °F 59% 30.09 in 6.2 mi South 17.3 mph - N/A   Partly Cloudy
12:00 PM 64 °F 50 °F 50% 30.12 in 19 mi South 17.3 mph - -   Partly Cloudy
12:00 PM 64.4 °F 50.0 °F 59% 30.09 in 6.2 mi South 17.3 mph - N/A   Scattered Clouds
12:35 PM 64.4 °F 50.0 °F 59% 30.09 in 6.2 mi South 17.3 mph 29.9 mph N/A   Scattered Clouds
1:00 PM 65 °F 52 °F 53% 30.10 in - South 17.3 mph - -  
1:00 PM 66.2 °F 51.8 °F 60% 30.09 in 6.2 mi South 17.3 mph - N/A   Partly Cloudy
1:30 PM 66.2 °F 48.2 °F 52% 30.09 in 6.2 mi SSE 16.1 mph - N/A   Partly Cloudy
2:00 PM 67 °F 48 °F 39% 30.09 in - SSE 13.8 mph - -  
2:00 PM 68.0 °F 48.2 °F 49% 30.09 in 6.2 mi SSE 13.8 mph - N/A   Partly Cloudy
2:30 PM 66.2 °F 46.4 °F 49% 30.06 in 6.2 mi SE 13.8 mph - N/A   Partly Cloudy
3:00 PM 67 °F 47 °F 38% 30.07 in 19 mi SE 15.0 mph - -   Partly Cloudy
3:00 PM 66.2 °F 46.4 °F 49% 30.06 in 6.2 mi SE 15.0 mph - N/A   Partly Cloudy
3:30 PM 68.0 °F 46.4 °F 46% 30.04 in 6.2 mi SE 13.8 mph - N/A   Partly Cloudy
4:00 PM 68 °F 47 °F 36% 30.06 in - SE 12.7 mph - -  
4:00 PM 68.0 °F 46.4 °F 46% 30.04 in 6.2 mi SE 12.7 mph - N/A   Partly Cloudy
4:30 PM 66.2 °F 48.2 °F 52% 30.04 in 6.2 mi SE 13.8 mph - N/A   Partly Cloudy
5:00 PM 66 °F 47 °F 40% 30.06 in - ESE 12.7 mph - -  
5:00 PM 66.2 °F 48.2 °F 52% 30.06 in 6.2 mi ESE 12.7 mph - N/A   Partly Cloudy
5:30 PM 68.0 °F 48.2 °F 49% 30.06 in 6.2 mi East 12.7 mph - N/A   Partly Cloudy
6:00 PM 65 °F 48 °F 44% 30.07 in 19 mi East 11.5 mph - -   Partly Cloudy
6:00 PM 66.2 °F 48.2 °F 52% 30.06 in 6.2 mi East 11.5 mph - N/A   Partly Cloudy
6:30 PM 64.4 °F 48.2 °F 56% 30.06 in 6.2 mi ESE 12.7 mph - N/A   Partly Cloudy
7:00 PM 64 °F 50 °F 50% 30.09 in - East 11.5 mph - -  
7:00 PM 64.4 °F 50.0 °F 59% 30.06 in 6.2 mi East 11.5 mph - N/A   Partly Cloudy
7:30 PM 62.6 °F 50.0 °F 63% 30.09 in 6.2 mi East 10.4 mph - N/A   Partly Cloudy
8:00 PM 63 °F 51 °F 55% 30.11 in - East 8.1 mph - -  
8:00 PM 62.6 °F 50.0 °F 63% 30.09 in 6.2 mi East 8.1 mph - N/A   Partly Cloudy
8:30 PM 62.6 °F 50.0 °F 63% 30.09 in 6.2 mi East 8.1 mph - N/A   Partly Cloudy
9:00 PM 62 °F 51 °F 58% 30.12 in 19 mi NE 6.9 mph - -   Partly Cloudy
9:00 PM 62.6 °F 51.8 °F 68% 30.12 in 6.2 mi NE 6.9 mph - N/A   Partly Cloudy
9:30 PM 62.6 °F 50.0 °F 63% 30.12 in 6.2 mi ENE 4.6 mph - N/A   Partly Cloudy
10:00 PM 62 °F 51 °F 59% 30.14 in - NE 4.6 mph - -  
10:00 PM 62.6 °F 51.8 °F 68% 30.12 in 6.2 mi NE 4.6 mph - N/A   Partly Cloudy
10:30 PM 62.6 °F 51.8 °F 68% 30.12 in 6.2 mi East 3.5 mph - N/A   Scattered Clouds
11:00 PM 63 °F 51 °F 57% 30.14 in - SE 4.6 mph - -  
11:00 PM 62.6 °F 51.8 °F 68% 30.12 in 6.2 mi SE 4.6 mph - N/A   Scattered Clouds
11:30 PM 62.6 °F 51.8 °F 68% 30.12 in 6.2 mi NNE 4.6 mph - N/A   Mostly Cloudy